Location: Wald
(31.7579°N, 86.6655°W)
Time: 12:21:54
(UTC+00:00)

ERS-2 - Pass Details

Date: 14 July 2020
Orbit: 493 x 498 km, 98.5° (Epoch: 08 August)

Event Time Altitude Azimuth Distance (km) Brightness Sun altitude
Exits shadow 08:44:49 - 135° (SE) 2,154 5.3 -22.6°
Reaches altitude 10° 08:46:06 10° 125° (SE) 1,688 4.9 -22.4°
Maximum altitude 08:49:02 23° 71° (ENE) 1,079 4.4 -22.0°
Drops below altitude 10° 08:51:58 10° 18° (NNE) 1,694 5.7 -21.5°
Sets 08:54:19 0° 3° (N) 2,580 6.5 -21.2°
